Погода в Дуплятском

Россия / Волгоградская область     51°06′35″N   42°21′01″E
темп.,
°C
ветер,
м/с
пор.,
м/с
влажн.,
%
обл.,
%
осадки,
мм/ч
давл.,
гПа
погр.,
м
20 сентября, пн
пн2000:00+14юв91550100 0.4 10151021
03:00+10юв101882100 3.4 1013709
06:00+10юв101892100 12.0 1011980
09:00+10юв91688100 13.8 1013668
12:00+10юв81389100 0.4 1013649
15:00+10юв8128495 0.4 1014517
18:00+10юв61082100 0.0 1014458
21:00+9вюв5118383 0.4 1014285
21 сентября, вт
вт2100:00+10вюв4882100 0.2 1013235
03:00+8вюв348711 0.3 101358
06:00+9юв348496 0.0 1012103
09:00+12ююз2279100 0.1 1012194
12:00+16зюз346094 0.0 1012847
15:00+16юз345495 0.0 1011867
18:00+13ююз2263100 0.0 101117
21:00+13юз356990 0.0 1011136
22 сентября, ср
ср2200:00+9ююз49915 0.1 1011205
03:00+8юз479751 0.1 1011156
06:00+8зюз489378 0.1 1011299
09:00+10з3575100 0.1 1012636
12:00+11зюз446199 0.1 10131004
15:00+12юз445790 0.1 10131198
18:00+11юз226275 0.0 101419
21:00+10з1164100 0.0 101519
23 сентября, чт
чт2300:00+10сз2269100 0.0 101570
03:00+9ссв2272100 0.0 101564
06:00+9в0069100 0.0 101511
09:00+11юз1165100 0.0 1016208
12:00+13ю2353100 0.0 10151035
15:00+14ю2344100 0.0 10151600
18:00+12ююв0153100 0.0 101510
21:00+11св2256100 0.0 101511
24 сентября, пт
пт2400:00+10ссв2365100 0.1 101565
03:00+9св3493100 3.9 1014152
06:00+9ссв4895100 4.3 1013428
09:00+9с4791100 4.9 1012370
12:00+10ссз3491100 0.1 1012313
15:00+12сз337357 0.1 1012766
18:00+10св228258 0.0 101210
21:00+10юв2282100 0.0 101330